Home   Weather   Preston   Past weeks

Flag for United Kingdom Past Weather in Preston, England, United Kingdom — Yesterday and Last 2 Weeks

Now
61 °F

Clear.


Feels Like: 61 °F
Forecast: 57 / 67 °F
Wind: 17 mph from Southwest

Location: Blackpool Airport

Current Time: Sep 27, 2016 at 8:02:40 PM

Latest Report: Sep 27, 2016 at 7:20 PM


Visibility: 10 mi

Pressure: 30.15 "Hg

Humidity: 83%

Dew Point: 55 °F

Location of PrestonLocation

Past Weather in Preston — Graph

°F

Preston Temperature Yesterday

Maximum temperature yesterday: 59 °F (at 3:20 PM)
Minimum temperature yesterday: 50 °F (at 6:20 AM)
Average temperature yesterday: 56 °F

High & Low Weather Summary for the Past Weeks

 TemperatureHumidityPressure
High79 °F (Sep 14, 2:20 PM)100% (Sep 13, 4:20 PM)30.24 "Hg (Sep 13, 4:20 PM)
Low46 °F (Sep 18, 6:50 AM)55% (Sep 22, 1:50 PM)29.71 "Hg (Sep 24, 6:50 PM)
Average61 °F79%30.01 "Hg
* Reported Sep 12 6:20 PM — Sep 27 6:50 PM, Preston, Weather by CustomWeather, © 2016

Note: Actual official high and low records may vary slightly from our data, if they occured in-between our weather recording intervals... More about our weather records

Advertising

Preston Weather History for the Previous 24 Hours

Scroll right to see more
 ConditionsComfort  
Time TempWeatherWind HumidityBarometerVisibility
6:50 PM
Tue, Sep 27
61 °FSunny.17 mph83%30.12 "Hg10 mi
6:20 PM61 °FPassing clouds.17 mph83%30.12 "HgN/A
5:50 PM61 °FPassing clouds.16 mph77%30.12 "HgN/A
5:20 PM61 °FPassing clouds.14 mph72%30.12 "HgN/A
4:50 PM61 °FPassing clouds.14 mph77%30.12 "HgN/A
4:20 PM61 °FPassing clouds.18 mph77%30.12 "HgN/A
3:20 PM63 °FScattered clouds.18 mph77%30.12 "HgN/A
2:50 PM61 °FPassing clouds.17 mph77%30.09 "HgN/A
2:20 PM63 °FScattered clouds.16 mph83%30.09 "HgN/A
1:50 PM63 °FScattered clouds.21 mph88%30.07 "HgN/A
1:20 PM63 °FScattered clouds.17 mph94%30.07 "HgN/A
12:50 PM63 °FScattered clouds.20 mph94%30.04 "HgN/A
12:20 PM63 °FBroken clouds.21 mph94%30.04 "HgN/A
11:50 AM63 °FBroken clouds.21 mph94%30.01 "HgN/A
11:20 AM63 °FBroken clouds.18 mph94%30.04 "Hg1 mi
10:20 AM61 °FDrizzle. Partly sunny.15 mph88%29.98 "HgN/A
9:50 AM61 °FLight rain. Partly sunny.15 mph88%30.01 "HgN/A
8:50 AM59 °FPartly sunny.15 mph88%29.98 "HgN/A
8:20 AM57 °FPartly sunny.15 mph94%29.98 "HgN/A
7:50 AM57 °FPartly sunny.18 mph94%29.98 "HgN/A
7:20 AM57 °FPartly sunny.17 mph94%29.98 "HgN/A
6:50 AM57 °FPassing clouds.18 mph88%29.98 "HgN/A
6:20 AM57 °FPartly cloudy.17 mph88%29.98 "HgN/A
8:50 PM
Mon, Sep 26
57 °FPassing clouds.12 mph94%30.07 "HgN/A
8:20 PM57 °FPassing clouds.9 mph94%30.07 "HgN/A
Weather by CustomWeather, © 2016

See weather overviewHow to use our weather pages